Milton, FL

4:25 AM CST on February 12, 2016 (GMT -0600)
Whiting Field Naval Air Station (South)

Weather History for KNDZ - March, 2014

Change the Weather History Date:

Saturday, March 22, 2014

  Actual Average (KNSE) Record (KNSE)
Temperature  
Mean Temperature 68 °F -  
Max Temperature 80 °F 70 °F 84 °F (1997)
Min Temperature 59 °F 49 °F 37 °F (1998)
Cooling Degree Days 4    
Growing Degree Days 18 (Base 50)    
Moisture  
Dew Point 58 °F    
Average Humidity 81    
Maximum Humidity 96    
Minimum Humidity 39    
Precipitation  
Precipitation 0.00 in - - ()
Sea Level Pressure  
Sea Level Pressure 30.01 in    
Wind  
Wind Speed 2 mph (East)    
Max Wind Speed 14 mph    
Max Gust Speed 18 mph    
Visibility 5 miles    
Events Fog    
Averages and records for this station are not official NWS values.
T = Trace of Precipitation, MM = Missing Value Source: NWS Daily Summary

Daily Weather History Graph

Daily Weather History Graph

Search for Another Location

Airport or City:

Trip Planner

Search our weather history database for the weather conditions in past years. The results will help you decide how hot, cold, wet, or windy it might be!

Date:

Astronomy

Mar. 22, 2014 Rise Set
Actual Time 6:49 AM CDT 7:00 PM CDT
Civil Twilight 6:25 AM CDT 7:24 PM CDT
Nautical Twilight 5:57 AM CDT 7:52 PM CDT
Astronomical Twilight 5:28 AM CDT 8:21 PM CDT
Moon 12:00 AM CDT (3/22) 10:51 AM CDT (3/22)
Length of Visible Light 12h 59m
Length of Day
12h 11m
Waning Gibbous, 65% of the Moon is Illuminated
Mar 22
Waning Gibbous
Mar 23
Last Quarter
Mar 30
New
Apr 7
First Quarter
Apr 15
Full

Hourly Weather History & Observations

Time (CDT) Temp. Dew Point Humidity Pressure Visibility Wind Dir Wind Speed Gust Speed Precip Events Conditions
12:56 AM 60.1 °F 57.9 °F 93% 30.00 in 0.2 mi Calm Calm - N/A Fog Fog
1:56 AM 60.1 °F 57.9 °F 93% 29.99 in 0.5 mi Calm Calm - N/A Fog Fog
2:56 AM 60.1 °F 59.0 °F 96% 29.98 in 0.5 mi Calm Calm - N/A Fog Fog
3:56 AM 61.0 °F 59.0 °F 93% 29.99 in 0.2 mi Calm Calm - N/A Fog Fog
4:56 AM 61.0 °F 59.0 °F 93% 30.00 in 0.2 mi Calm Calm - N/A Fog Fog
5:56 AM 60.1 °F 57.9 °F 93% 30.01 in 0.2 mi Calm Calm - N/A Fog Fog
6:56 AM 60.1 °F 57.9 °F 93% 30.02 in 0.5 mi ENE 3.5 mph - N/A Fog Fog
7:56 AM 60.1 °F 57.9 °F 93% 30.04 in 0.5 mi NE 3.5 mph - N/A Fog Fog
8:56 AM 61.0 °F 59.0 °F 93% 30.05 in 0.2 mi Calm Calm - N/A Fog Fog
9:28 AM 62.1 °F 60.1 °F 93% 30.08 in 1.0 mi East 3.5 mph - N/A   Overcast
9:38 AM 62.1 °F 60.1 °F 93% 30.09 in 3.0 mi NE 4.6 mph - N/A   Overcast
9:56 AM 64.0 °F 61.0 °F 90% 30.04 in 10.0 mi NE 4.6 mph - N/A   Mostly Cloudy
10:00 AM 64.0 °F 60.1 °F 87% 30.08 in 10.0 mi NE 3.5 mph - N/A   Scattered Clouds
10:56 AM 72.0 °F 55.9 °F 57% 30.05 in 10.0 mi NNW 6.9 mph - N/A   Partly Cloudy
11:56 AM 75.0 °F 52.0 °F 44% 30.02 in 10.0 mi Variable 4.6 mph - N/A   Clear
12:56 PM 78.1 °F 51.1 °F 39% 29.99 in 10.0 mi North 8.1 mph - N/A   Clear
1:56 PM - - N/A% - - North - - N/A   Unknown
2:56 PM 78.1 °F 57.9 °F 50% 29.95 in 10.0 mi South 13.8 mph 18.4 mph N/A   Mostly Cloudy
3:56 PM 75.9 °F 59.0 °F 56% 29.94 in 10.0 mi South 12.7 mph - N/A   Clear
4:56 PM 73.0 °F 60.1 °F 64% 29.94 in 10.0 mi South 11.5 mph - N/A   Clear
5:56 PM 71.1 °F 57.9 °F 63% 29.96 in 10.0 mi SSW 6.9 mph - N/A   Clear
6:56 PM 66.9 °F 57.9 °F 73% 29.99 in 10.0 mi South 6.9 mph - N/A   Clear
7:56 PM 64.9 °F 59.0 °F 81% 30.01 in 10.0 mi SSW 4.6 mph - N/A   Clear
8:56 PM 63.0 °F 59.0 °F 87% 30.01 in 10.0 mi Calm Calm - N/A   Clear
9:56 PM 63.0 °F 59.0 °F 87% 30.01 in 10.0 mi Calm Calm - N/A   Clear
10:56 PM 62.1 °F 59.0 °F 90% 30.01 in 6.0 mi Calm Calm - N/A   Clear
11:43 PM 61.0 °F 59.0 °F 93% 30.04 in 2.0 mi Calm Calm - N/A   Clear
11:53 PM 59.0 °F 57.2 °F 94% 30.04 in 1.0 mi Calm Calm - N/A   Mist
11:56 PM 59.0 °F 57.0 °F 93% 30.00 in 0.5 mi Calm Calm - N/A Fog Fog